Location: Cormont
(50.5693°N, 1.7416°E)
Time: 14:21:07
(UTC+00:00)

CZ-2C R/B - Pass Details

Date: 21 October 2019
Orbit: 703 x 909 km, 98.1° (Epoch: 20 November)

Event Time Altitude Azimuth Distance (km) Brightness Sun altitude
Exits shadow 19:38:10 53° 34° (NE) 1,101 3.6 -27.3°
Drops below altitude 10° 19:42:57 10° 352° (N) 2,562 6.0 -28.0°
Sets 19:45:21 0° 349° (N) 3,485 6.8 -28.3°
